GLKD EGLL-EGJJ

Flight info

Callsign GLKD
Flight time 0h 44m
Altitude 26000
Route NORRY DCT TABEN DCT PEPIS DCT SAM DCT NEDUL DCT THRED DCT ORTAC DCT DOMOK
Aircraft C25C/M-SDE2E3FGHRWXY/LB1

Departure

Time 2026-05-04 12:27
Airport London Heathrow Airport (EGLL)

Arrival

Time 2026-05-04 13:12
Airport Jersey Airport (EGJJ)
Time Latitude Longitude Altitude Speed Heading
2026-05-04 12:27 51.47581 -0.63011 3452 ft 249 kts 269°
2026-05-04 12:27 51.47569 -0.65829 3573 ft 254 kts 269°
2026-05-04 12:28 51.47559 -0.68599 4083 ft 243 kts 269°
2026-05-04 12:28 51.47552 -0.71279 4463 ft 240 kts 269°
2026-05-04 12:28 51.47551 -0.73956 4787 ft 239 kts 269°
2026-05-04 12:28 51.47547 -0.76579 5286 ft 229 kts 269°
2026-05-04 12:29 51.47521 -0.79061 5885 ft 218 kts 267°
2026-05-04 12:29 51.47494 -0.81461 6332 ft 215 kts 268°
2026-05-04 12:29 51.47496 -0.83877 6694 ft 215 kts 269°
2026-05-04 12:29 51.47517 -0.86246 6949 ft 223 kts 269°
2026-05-04 12:30 51.47550 -0.88778 7179 ft 227 kts 270°
2026-05-04 12:30 51.47586 -0.91307 7539 ft 226 kts 270°
2026-05-04 12:30 51.47620 -0.93825 7862 ft 226 kts 269°
2026-05-04 12:30 51.47654 -0.96363 8239 ft 237 kts 269°
2026-05-04 12:31 51.47688 -0.99215 8642 ft 274 kts 269°
2026-05-04 12:31 51.47721 -1.02453 9061 ft 306 kts 269°
2026-05-04 12:31 51.47755 -1.06011 9487 ft 332 kts 269°
2026-05-04 12:31 51.47792 -1.09735 9917 ft 335 kts 269°
2026-05-04 12:32 51.47832 -1.13331 10290 ft 310 kts 269°
2026-05-04 12:32 51.46069 -1.18716 10992 ft 273 kts 207°
2026-05-04 12:32 51.44303 -1.19633 11356 ft 261 kts 193°
2026-05-04 12:33 51.42555 -1.20183 11720 ft 251 kts 191°
2026-05-04 12:33 51.40865 -1.20683 12090 ft 244 kts 191°
2026-05-04 12:33 51.39179 -1.21198 12463 ft 256 kts 191°
2026-05-04 12:33 51.37388 -1.21737 12852 ft 267 kts 191°
2026-05-04 12:34 51.35525 -1.22292 13253 ft 277 kts 191°
2026-05-04 12:34 51.33606 -1.22866 13663 ft 285 kts 191°
2026-05-04 12:34 51.31638 -1.23457 14047 ft 291 kts 191°
2026-05-04 12:34 51.29630 -1.24066 14411 ft 296 kts 191°
2026-05-04 12:35 51.27592 -1.24660 14785 ft 300 kts 190°
2026-05-04 12:35 51.25530 -1.25194 15265 ft 300 kts 189°
2026-05-04 12:35 51.23473 -1.25686 15771 ft 298 kts 188°
2026-05-04 12:35 51.21421 -1.26165 16284 ft 297 kts 188°
2026-05-04 12:36 51.19377 -1.26648 16783 ft 297 kts 188°
2026-05-04 12:36 51.17363 -1.27137 17301 ft 297 kts 188°
2026-05-04 12:36 51.15324 -1.27642 17834 ft 296 kts 188°
2026-05-04 12:36 51.13289 -1.28150 18358 ft 296 kts 188°
2026-05-04 12:37 51.11258 -1.28661 18832 ft 295 kts 188°
2026-05-04 12:37 51.09233 -1.29168 19311 ft 295 kts 188°
2026-05-04 12:37 51.07209 -1.29669 19801 ft 294 kts 188°
2026-05-04 12:37 51.05183 -1.30162 20289 ft 295 kts 188°
2026-05-04 12:38 51.03183 -1.30638 20786 ft 295 kts 188°
2026-05-04 12:38 51.01153 -1.31116 21299 ft 295 kts 188°
2026-05-04 12:38 50.99118 -1.31587 21815 ft 295 kts 188°
2026-05-04 12:38 50.97088 -1.32047 22353 ft 295 kts 188°
2026-05-04 12:39 50.95061 -1.32510 22889 ft 293 kts 191°
2026-05-04 12:39 50.93181 -1.33687 23439 ft 291 kts 208°
2026-05-04 12:39 50.91445 -1.35320 23876 ft 291 kts 211°
2026-05-04 12:39 50.89688 -1.37026 23970 ft 302 kts 211°
2026-05-04 12:40 50.87882 -1.38769 23994 ft 314 kts 211°
2026-05-04 12:40 50.85983 -1.40599 24007 ft 325 kts 211°
2026-05-04 12:40 50.84025 -1.42488 24007 ft 334 kts 211°
2026-05-04 12:40 50.82013 -1.44428 24013 ft 343 kts 211°
2026-05-04 12:41 50.79952 -1.46401 24008 ft 350 kts 211°
2026-05-04 12:41 50.77852 -1.48398 24008 ft 354 kts 210°
2026-05-04 12:41 50.75737 -1.50391 24012 ft 355 kts 210°
2026-05-04 12:41 50.73615 -1.52300 24011 ft 345 kts 208°
2026-05-04 12:42 50.71544 -1.54105 24010 ft 335 kts 208°
2026-05-04 12:42 50.69556 -1.55828 24011 ft 326 kts 208°
2026-05-04 12:42 50.67585 -1.57527 24002 ft 319 kts 208°
2026-05-04 12:42 50.65655 -1.59186 23997 ft 313 kts 208°
2026-05-04 12:43 50.63762 -1.60819 23993 ft 308 kts 208°
2026-05-04 12:43 50.61898 -1.62434 23994 ft 303 kts 208°
2026-05-04 12:43 50.60064 -1.64028 23995 ft 299 kts 208°
2026-05-04 12:43 50.58252 -1.65607 23994 ft 296 kts 208°
2026-05-04 12:44 50.56459 -1.67171 23991 ft 293 kts 208°
2026-05-04 12:44 50.54681 -1.68724 24003 ft 291 kts 208°
2026-05-04 12:44 50.52943 -1.70243 24003 ft 289 kts 208°
2026-05-04 12:44 50.51194 -1.71776 24006 ft 287 kts 208°
2026-05-04 12:45 50.49454 -1.73303 24008 ft 285 kts 208°
2026-05-04 12:45 50.47725 -1.74819 24010 ft 284 kts 208°
2026-05-04 12:45 50.45992 -1.76301 24008 ft 283 kts 207°
2026-05-04 12:45 50.44247 -1.77722 24012 ft 282 kts 206°
2026-05-04 12:46 50.42495 -1.79131 23911 ft 285 kts 206°
2026-05-04 12:46 50.40730 -1.80551 23777 ft 288 kts 206°
2026-05-04 12:46 50.38924 -1.82005 23512 ft 296 kts 206°
2026-05-04 12:46 50.37101 -1.83474 23217 ft 302 kts 206°
2026-05-04 12:47 50.35218 -1.84991 22921 ft 307 kts 206°
2026-05-04 12:47 50.33308 -1.86532 22626 ft 311 kts 206°
2026-05-04 12:47 50.31372 -1.88096 22343 ft 315 kts 206°
2026-05-04 12:47 50.29416 -1.89678 22046 ft 318 kts 206°
2026-05-04 12:48 50.27434 -1.91285 21660 ft 323 kts 206°
2026-05-04 12:48 50.25456 -1.92889 21271 ft 317 kts 206°
2026-05-04 12:48 50.23513 -1.94452 20887 ft 312 kts 206°
2026-05-04 12:48 50.21616 -1.95961 20509 ft 308 kts 205°
2026-05-04 12:49 50.19603 -1.97011 20125 ft 304 kts 192°
2026-05-04 12:49 50.17543 -1.97703 19751 ft 302 kts 192°
2026-05-04 12:49 50.15500 -1.98415 19380 ft 300 kts 192°
2026-05-04 12:49 50.13472 -1.99156 19014 ft 299 kts 192°
2026-05-04 12:50 50.11452 -1.99901 18646 ft 298 kts 192°
2026-05-04 12:50 50.09437 -2.00646 18289 ft 297 kts 192°
2026-05-04 12:50 50.07426 -2.01390 17883 ft 297 kts 192°
2026-05-04 12:50 50.05448 -2.02122 17489 ft 296 kts 192°
2026-05-04 12:51 50.03458 -2.02860 17087 ft 292 kts 192°
2026-05-04 12:51 50.01489 -2.03596 16697 ft 290 kts 192°
2026-05-04 12:51 49.99536 -2.04323 16310 ft 288 kts 192°
2026-05-04 12:51 49.97595 -2.05041 15923 ft 286 kts 192°
2026-05-04 12:52 49.95667 -2.05748 15544 ft 284 kts 192°
2026-05-04 12:52 49.93748 -2.06447 15170 ft 283 kts 192°
2026-05-04 12:52 49.91837 -2.07141 14795 ft 281 kts 192°
2026-05-04 12:52 49.89956 -2.07821 14200 ft 278 kts 192°
2026-05-04 12:53 49.88146 -2.08715 13564 ft 273 kts 212°
2026-05-04 12:53 49.86837 -2.10824 12900 ft 271 kts 230°
2026-05-04 12:53 49.85704 -2.13140 12254 ft 268 kts 231°
2026-05-04 12:53 49.84587 -2.15431 11619 ft 265 kts 231°
2026-05-04 12:54 49.83472 -2.17685 10998 ft 262 kts 230°
2026-05-04 12:54 49.82360 -2.19908 10391 ft 260 kts 230°
2026-05-04 12:54 49.81252 -2.22112 9777 ft 258 kts 230°
2026-05-04 12:54 49.80151 -2.24295 9113 ft 256 kts 230°
2026-05-04 12:55 49.79056 -2.26463 8468 ft 255 kts 230°
2026-05-04 12:55 49.77981 -2.28583 7839 ft 253 kts 230°
2026-05-04 12:55 49.76893 -2.30712 7220 ft 251 kts 230°
2026-05-04 12:55 49.75835 -2.32766 7035 ft 234 kts 230°
2026-05-04 12:56 49.74860 -2.34624 7016 ft 212 kts 230°
2026-05-04 12:56 49.73976 -2.36315 7005 ft 193 kts 230°
2026-05-04 12:56 49.73143 -2.37937 6674 ft 195 kts 230°
2026-05-04 12:56 49.72294 -2.39593 6291 ft 198 kts 230°
2026-05-04 12:57 49.71439 -2.41248 5901 ft 201 kts 230°
2026-05-04 12:57 49.70564 -2.42937 5512 ft 202 kts 230°
2026-05-04 12:57 49.69683 -2.44639 5134 ft 203 kts 230°
2026-05-04 12:57 49.68798 -2.46348 4755 ft 204 kts 230°
2026-05-04 12:58 49.67910 -2.48059 4368 ft 204 kts 230°
2026-05-04 12:58 49.67028 -2.49759 4095 ft 199 kts 230°
2026-05-04 12:58 49.66193 -2.51365 4033 ft 185 kts 230°
2026-05-04 12:58 49.65411 -2.52837 4006 ft 170 kts 221°
2026-05-04 12:59 49.64367 -2.53268 4002 ft 153 kts 177°
2026-05-04 12:59 49.63347 -2.53252 4007 ft 141 kts 181°
2026-05-04 12:59 49.62418 -2.53295 4002 ft 130 kts 180°
2026-05-04 12:59 49.61551 -2.53322 4001 ft 120 kts 180°
2026-05-04 13:00 49.60751 -2.53348 3975 ft 112 kts 180°
2026-05-04 13:00 49.59987 -2.53377 3904 ft 108 kts 180°
2026-05-04 13:00 49.59211 -2.53404 3674 ft 119 kts 180°
2026-05-04 13:00 49.58347 -2.53432 3439 ft 129 kts 180°
2026-05-04 13:01 49.57434 -2.53462 3222 ft 148 kts 180°
2026-05-04 13:01 49.56330 -2.53499 3024 ft 159 kts 180°
2026-05-04 13:01 49.55258 -2.53535 2835 ft 159 kts 180°
2026-05-04 13:01 49.54149 -2.53567 2623 ft 160 kts 180°
2026-05-04 13:02 49.53035 -2.53596 2586 ft 166 kts 178°
2026-05-04 13:02 49.51850 -2.53608 2577 ft 175 kts 179°
2026-05-04 13:02 49.50608 -2.53608 2569 ft 182 kts 179°
2026-05-04 13:02 49.49316 -2.53598 2564 ft 189 kts 179°
2026-05-04 13:03 49.47993 -2.53569 2563 ft 190 kts 179°
2026-05-04 13:03 49.46672 -2.53546 2545 ft 189 kts 179°
2026-05-04 13:03 49.45375 -2.53538 2533 ft 189 kts 179°
2026-05-04 13:03 49.44107 -2.53544 2528 ft 189 kts 180°
2026-05-04 13:04 49.42794 -2.53554 2529 ft 188 kts 180°
2026-05-04 13:04 49.41485 -2.53566 2515 ft 189 kts 180°
2026-05-04 13:04 49.40178 -2.53585 2519 ft 186 kts 180°
2026-05-04 13:04 49.38888 -2.53610 2518 ft 184 kts 180°
2026-05-04 13:05 49.37614 -2.53638 2512 ft 183 kts 180°
2026-05-04 13:05 49.36337 -2.53668 2512 ft 182 kts 180°
2026-05-04 13:05 49.35088 -2.53703 2503 ft 174 kts 180°
2026-05-04 13:05 49.33904 -2.53739 2383 ft 192 kts 179°
2026-05-04 13:06 49.32513 -2.53705 2355 ft 192 kts 178°
2026-05-04 13:06 49.31280 -2.53658 2632 ft 168 kts 176°
2026-05-04 13:06 49.30105 -2.53601 2553 ft 172 kts 175°
2026-05-04 13:06 49.28882 -2.53458 2440 ft 180 kts 172°
2026-05-04 13:07 49.27670 -2.52941 2377 ft 184 kts 156°
2026-05-04 13:07 49.26529 -2.52064 2412 ft 181 kts 150°
2026-05-04 13:07 49.25482 -2.51071 2559 ft 172 kts 146°
2026-05-04 13:07 49.24606 -2.49887 2636 ft 169 kts 124°
2026-05-04 13:08 49.23963 -2.48378 2537 ft 176 kts 119°
2026-05-04 13:08 49.23377 -2.46688 2555 ft 173 kts 116°
2026-05-04 13:08 49.22872 -2.45042 2458 ft 177 kts 114°
2026-05-04 13:08 49.22376 -2.43330 2539 ft 169 kts 114°
2026-05-04 13:09 49.21914 -2.41728 2565 ft 167 kts 114°
2026-05-04 13:09 49.21468 -2.40055 2520 ft 169 kts 112°
2026-05-04 13:09 49.21028 -2.38440 2624 ft 161 kts 113°
2026-05-04 13:09 49.20580 -2.36838 2508 ft 169 kts 113°
2026-05-04 13:10 49.20109 -2.35170 2289 ft 176 kts 111°
2026-05-04 13:10 49.19766 -2.33410 2192 ft 166 kts 101°
2026-05-04 13:10 49.19609 -2.31711 1991 ft 160 kts 91°
2026-05-04 13:10 49.19578 -2.30032 1706 ft 160 kts 85°
2026-05-04 13:11 49.19739 -2.28268 1371 ft 172 kts 79°
2026-05-04 13:11 49.20016 -2.26500 1224 ft 171 kts 72°
2026-05-04 13:11 49.20355 -2.24765 1046 ft 169 kts 76°
2026-05-04 13:11 49.20563 -2.23085 768 ft 145 kts 82°
2026-05-04 13:12 49.20629 -2.21767 503 ft 111 kts 83°
2026-05-04 13:12 49.20708 -2.20689 293 ft 93 kts 82°
2026-05-04 13:12 49.20773 -2.19957 274 ft 47 kts 83°
2026-05-04 13:12 49.20781 -2.19672 275 ft 13 kts 110°
2026-05-04 13:13 49.20728 -2.19626 274 ft 5 kts 164°
2026-05-04 13:13 49.20697 -2.19597 274 ft 5 kts 117°
2026-05-04 13:13 49.20694 -2.19533 274 ft 20 kts 96°
2026-05-04 13:13 49.20655 -2.19422 274 ft 0 kts 177°